Temperature
15 14 13 12 12 12 12 11 11 10 10 9 9 9 8 8 8 8 8 7 7 7 7 7 7 7 7 7 7 8 8 9 9 9 9 9 9 9 9 10 10 10 10
17 15 13 13 12 12 12 11 11 10 10 9 9 9 8 8 8 8 7 7 7 7 7 7 7 7 7 7 7 7 8 9 9 9 9 9 8 8 8 8 8 9 9
17 16 14 13 12 12 12 11 11 10 10 10 9 9 8 8 8 7 7 7 7 7 7 7 7 7 7 7 7 7 8 9 9 9 9 8 7 7 7 7 7 8 8
17 16 14 13 12 12 12 12 11 11 10 10 9 9 8 8 8 7 7 7 7 7 7 7 7 7 7 7 7 7 8 9 9 8 8 8 7 6 6 6 6 6 7
17 16 15 13 12 12 12 12 11 11 10 10 9 9 9 8 8 8 8 8 8 8 7 7 7 7 7 7 7 7 9 9 8 8 8 7 6 5 5 5 5 5 6
17 16 14 13 12 12 11 11 11 11 10 10 10 9 9 9 8 8 8 8 8 8 8 8 7 7 7 7 7 8 9 9 8 8 8 7 6 5 5 5 5 5 5
17 16 14 13 12 11 11 11 11 11 11 10 10 9 9 9 9 9 8 8 8 8 8 8 8 8 8 8 8 8 8 8 8 8 8 7 6 5 5 5 5 5 5
17 16 14 13 12 11 11 11 11 11 11 10 10 10 9 9 9 9 9 9 8 8 8 8 8 8 8 8 8 8 8 8 8 8 7 7 6 5 5 5 5 5 5
16 15 14 13 12 11 11 11 11 11 11 11 10 10 10 10 9 9 9 9 9 9 8 8 8 8 8 8 8 8 8 8 8 8 7 7 6 5 5 5 5 5 4
15 14 14 13 12 11 11 10 11 11 11 11 11 10 10 10 10 9 9 9 9 9 9 9 8 8 8 8 8 8 8 8 8 8 7 7 6 6 5 5 5 5 5
14 14 13 13 12 12 11 10 10 10 10 10 11 11 10 10 10 10 10 9 9 9 9 9 9 8 8 8 8 8 8 8 8 7 7 7 7 6 6 5 5 5 5
16 15 14 13 13 12 11 11 10 10 10 11 11 11 11 10 10 10 10 10 9 9 9 9 8 8 8 8 8 8 8 8 8 7 7 7 7 6 6 6 5 5 5
17 16 15 14 13 12 11 11 11 11 11 11 11 11 10 10 10 10 10 10 9 9 9 9 9 8 8 8 8 8 8 8 8 7 7 7 7 7 6 6 5 5 5
16 16 16 14 13 12 12 11 11 11 11 11 11 11 10 10 10 10 10 10 9 9 9 9 8 8 8 8 8 8 8 7 7 7 7 7 7 6 6 5 5 5 4
16 16 16 15 14 13 12 11 11 11 11 11 11 11 10 10 10 10 10 10 9 9 9 8 8 8 8 8 8 8 7 7 7 7 7 7 6 6 6 5 5 4 4
17 16 16 15 14 13 13 12 12 12 11 11 11 11 10 10 10 10 10 9 9 9 9 8 8 8 8 8 8 8 7 7 7 7 7 6 6 6 6 5 5 4 4
18 17 16 15 14 14 13 13 12 12 11 11 11 11 10 10 10 10 9 9 9 9 8 8 8 7 8 7 8 7 7 7 7 7 6 6 6 6 6 5 5 4 4
18 17 16 15 14 13 13 13 12 12 11 11 11 10 10 10 10 9 9 9 9 8 8 8 8 7 7 7 7 7 7 7 7 6 6 6 6 6 6 5 5 5 4
18 17 16 15 14 14 13 12 11 11 11 10 10 10 10 9 9 9 9 9 8 8 8 7 7 7 7 7 7 6 6 6 6 6 6 6 6 6 6 5 5 5 4
18 17 16 15 14 13 12 11 10 10 10 10 10 10 9 9 9 8 8 8 8 7 7 7 7 7 7 6 6 6 6 6 6 6 6 6 6 6 5 5 5 4 4
18 17 16 15 14 13 12 11 11 11 10 10 10 10 9 9 8 8 8 8 7 7 7 7 6 6 6 6 5 5 5 6 6 6 6 6 6 6 5 5 5 4 4
17 16 16 15 14 14 13 13 12 11 10 10 10 9 9 9 8 8 7 7 7 6 6 6 6 6 5 5 4 4 3 5 6 6 6 6 6 6 5 5 5 4 4
16 16 15 15 14 13 13 12 11 10 10 10 10 10 9 9 8 8 7 7 6 6 6 6 5 5 5 5 4 3 3 3 5 5 5 6 6 6 5 5 5 4 4
15 15 14 14 13 13 12 11 11 11 11 11 10 10 9 9 8 8 7 7 6 6 5 5 5 4 4 4 3 3 3 3 2 3 4 4 4 4 5 4 4 4 4
14 14 14 13 12 12 12 11 11 10 10 10 10 9 9 9 8 8 7 7 6 6 5 5 4 4 4 3 3 3 2 2 1 0 1 2 2 3 3 4 3 3 3
14 14 13 13 12 12 11 11 11 10 10 10 9 9 9 8 8 8 7 7 6 6 5 5 4 4 3 3 2 2 1 1 1 0 -1 -0 0 1 2 2 2 2 2
Wind_Speed
10 20 25 23 21 20 18 17 16 15 14 13 13 12 12 12 12 12 12 12 12 13 14 14 14 15 15 15 15 16 16 17 17 18 19 19 20 20 20 20 20 20 22
15 27 27 25 23 21 20 18 17 16 15 14 13 12 12 12 11 11 11 11 12 12 13 13 14 14 14 14 14 15 16 16 16 17 18 17 17 19 19 20 19 19 21
19 27 28 26 24 22 21 19 18 17 16 15 14 13 12 12 11 11 11 11 11 11 12 12 12 13 13 13 13 14 15 15 15 16 17 17 14 17 18 18 19 19 19
24 26 26 27 25 23 22 20 19 18 17 15 14 14 13 12 11 11 10 10 10 10 11 11 11 11 12 12 12 13 14 14 13 14 16 16 13 15 16 17 17 18 18
23 25 26 28 26 24 23 21 20 19 18 16 15 14 13 12 12 11 10 10 10 10 9 10 10 10 10 11 11 11 12 12 11 13 16 16 13 13 15 15 16 16 17
18 24 26 28 26 25 24 22 21 20 19 17 16 15 14 13 12 11 11 10 9 9 9 9 9 9 9 9 9 10 11 11 9 11 13 14 12 12 13 14 14 15 15
17 24 26 28 27 26 24 23 22 21 20 18 17 16 15 14 13 12 11 10 9 9 8 8 7 7 7 8 8 9 10 10 8 7 10 12 10 11 12 12 13 13 13
18 23 25 28 27 26 25 24 23 22 21 19 18 17 16 15 14 13 12 11 10 9 8 7 6 6 6 6 6 7 9 8 6 4 7 10 8 9 10 10 11 11 12
19 20 21 25 26 27 26 25 24 23 21 20 19 18 17 16 15 14 13 11 10 9 8 7 6 5 5 5 5 6 7 8 6 3 4 7 6 7 8 9 9 10 10
12 15 18 20 23 24 25 25 24 23 22 21 20 19 18 17 16 15 14 13 12 10 9 8 7 6 5 4 4 5 6 6 6 3 1 4 4 5 6 7 7 8 8
14 13 16 17 20 22 23 24 24 24 23 22 21 20 19 16 15 15 14 14 13 12 11 9 8 7 6 5 4 5 6 6 6 4 2 2 2 3 4 4 5 6 6
19 18 14 17 18 20 21 22 21 21 21 21 20 20 18 17 16 14 15 16 14 13 12 11 10 9 7 6 5 5 6 6 6 6 4 2 1 2 2 2 3 4 5
19 18 17 17 20 20 18 18 17 18 18 19 21 20 19 17 16 15 15 15 14 14 12 11 9 8 8 9 8 7 8 8 7 7 6 5 4 3 3 3 3 3 4
13 19 18 17 17 20 19 17 16 16 16 16 20 22 19 15 14 14 15 15 14 14 13 12 10 11 11 12 12 11 10 10 10 9 9 8 7 6 6 6 5 5 5
16 18 18 16 17 18 17 16 17 17 18 18 20 22 21 16 13 14 15 16 16 16 15 14 13 12 12 13 13 13 12 12 12 12 11 11 10 9 9 9 8 8 7
20 20 17 20 18 17 15 14 15 19 19 19 20 22 23 20 16 14 13 15 16 18 17 16 15 13 12 12 12 14 14 14 14 14 14 14 13 13 12 12 11 10 10
20 18 18 19 17 17 15 16 17 19 20 20 21 23 24 23 20 17 13 13 17 19 18 16 14 12 9 9 9 13 14 15 15 16 16 16 16 15 15 15 14 13 13
15 16 18 18 17 18 16 15 15 18 20 20 21 22 24 25 23 19 14 13 18 18 16 11 7 6 7 7 7 7 11 13 15 17 18 18 18 17 17 17 17 16 15
16 16 17 17 18 17 14 13 14 15 18 19 20 21 23 25 25 21 16 16 18 15 13 11 8 7 8 9 8 8 7 8 12 16 16 19 20 20 20 19 20 19 18
11 13 15 16 15 13 10 7 7 9 10 16 18 21 22 23 24 23 17 16 16 9 9 8 9 8 7 7 9 9 8 8 10 12 15 17 19 21 21 20 21 20 20
7 10 13 15 13 11 8 9 10 12 10 8 14 20 22 23 23 22 16 13 13 11 13 12 9 9 9 4 4 6 6 9 13 12 13 13 16 20 21 21 21 20 19
6 8 10 13 13 13 13 11 7 7 7 8 9 15 21 22 23 22 17 11 11 12 12 12 11 8 7 7 6 3 5 6 9 14 12 13 14 16 17 21 21 20 20
3 7 9 11 12 12 11 6 3 2 2 5 8 9 14 21 22 22 20 17 13 13 15 15 14 14 12 9 8 7 5 8 4 5 9 12 11 10 11 15 19 21 21
2 3 5 7 9 9 9 8 11 11 13 12 11 10 10 17 20 22 21 18 15 15 17 16 16 14 13 13 8 11 9 5 5 5 4 6 9 12 12 12 15 20 22
2 0 2 4 6 7 9 11 12 14 15 10 8 10 11 11 16 20 21 18 17 16 17 16 15 16 16 17 12 7 12 10 9 7 9 5 5 8 10 10 11 15 20
4 2 0 2 4 6 8 10 12 16 15 13 12 12 11 10 12 16 17 16 17 17 18 18 18 18 18 18 16 13 9 8 9 11 17 13 8 6 8 9 10 13 18
Wind_Direction
185 178 176 170 167 163 160 156 152 148 143 138 133 126 120 115 109 104 99 93 88 83 80 78 75 73 71 69 68 69 69 66 64 57 50 50 60 62 60 60 56 51 52
165 173 174 171 169 166 163 160 156 153 149 144 140 133 128 122 117 111 104 98 92 87 84 80 77 74 72 70 70 70 71 69 66 56 44 35 50 63 60 58 57 55 53
160 170 172 172 171 169 166 163 160 158 155 151 147 142 137 131 125 119 111 105 99 93 88 84 79 76 74 72 72 74 74 72 67 52 35 21 31 62 61 59 58 56 53
162 169 171 174 173 171 169 166 165 163 161 158 154 150 145 140 135 129 122 115 108 101 95 90 84 80 76 74 75 78 79 76 67 44 25 17 23 61 61 59 58 56 54
165 169 172 175 175 174 172 170 169 167 165 163 160 157 153 149 144 138 132 125 119 112 105 97 90 85 81 77 78 84 85 81 65 36 22 16 18 59 63 60 58 57 55
167 169 175 177 177 177 175 174 172 171 170 168 166 164 161 157 152 147 142 136 130 123 115 107 99 91 85 81 82 89 94 90 67 37 20 13 16 59 62 61 59 57 54
167 171 178 180 180 180 179 178 176 175 174 173 172 170 167 164 160 157 153 149 144 137 128 119 110 101 93 87 86 95 103 103 86 43 16 6 19 61 61 59 57 55 52
168 172 181 183 183 183 183 182 180 179 179 178 177 176 174 171 169 167 164 161 156 150 143 134 126 116 105 97 95 100 108 111 103 56 10 360 33 60 61 57 54 52 50
170 174 184 186 186 187 187 186 185 184 184 182 182 181 180 178 177 176 174 172 168 165 160 154 147 139 128 116 111 113 115 119 119 90 360 353 36 55 58 55 51 49 47
174 180 186 188 186 188 190 190 189 188 188 187 187 186 184 184 185 183 183 182 180 178 176 174 171 167 160 147 138 131 126 132 138 141 349 347 35 48 52 50 46 43 41
184 188 187 188 186 187 189 193 192 193 193 191 190 189 189 187 187 188 186 191 191 190 190 190 190 189 186 183 173 156 147 154 167 182 244 309 21 33 42 40 35 32 31
192 193 191 190 186 185 190 195 193 193 194 192 190 189 186 184 186 188 193 200 201 200 201 202 204 203 195 198 207 190 178 181 189 202 231 256 296 333 360 9 9 8 10
193 192 195 193 189 187 190 191 190 190 190 189 188 186 184 185 191 197 202 210 209 206 206 210 216 207 201 206 214 212 207 206 206 212 229 245 255 272 282 292 303 316 328
190 197 195 193 191 191 190 191 189 188 188 187 188 187 183 186 195 202 206 211 208 205 205 212 219 219 219 220 220 219 218 218 220 222 231 244 251 258 265 268 271 278 287
198 197 196 193 193 192 192 193 195 195 195 192 191 192 191 192 199 204 208 210 210 209 209 213 220 223 225 227 226 224 223 224 227 229 234 244 249 254 259 262 263 265 270
206 201 194 195 195 192 195 198 199 199 198 196 198 199 199 200 202 203 208 210 212 212 213 214 217 219 224 226 228 227 227 229 232 234 237 242 248 252 255 259 261 262 264
209 202 196 196 195 195 198 200 201 200 200 203 205 205 205 206 205 205 209 212 215 215 215 216 220 222 226 227 231 232 231 231 233 236 237 239 243 249 253 255 257 258 260
207 202 200 198 195 198 200 199 201 200 203 208 208 208 210 211 209 208 212 217 215 211 210 210 211 214 225 225 229 233 233 233 235 237 238 238 239 241 247 252 254 256 258
206 200 198 199 197 198 198 197 199 199 205 208 208 211 212 213 211 211 217 219 212 209 211 217 212 209 221 227 233 238 238 237 238 240 238 237 236 237 240 246 250 253 255
201 197 198 199 199 191 187 187 195 205 210 210 210 213 212 213 212 214 220 218 209 209 216 216 218 214 220 223 239 248 242 239 239 239 240 239 236 236 236 237 241 247 251
182 190 195 198 198 186 187 196 203 215 214 214 216 216 214 214 213 214 222 216 210 218 222 217 217 221 226 195 228 273 267 244 243 241 238 236 236 234 232 231 232 235 242
187 194 197 201 197 197 203 203 203 210 216 219 222 222 219 217 216 219 221 220 214 220 224 219 213 220 222 190 191 221 284 288 244 237 230 231 233 231 230 230 228 229 231
196 201 204 205 202 203 201 189 189 190 260 228 225 227 222 221 221 222 223 222 219 218 227 224 216 217 227 212 199 188 212 245 284 259 236 232 228 224 227 228 227 228 229
258 217 208 204 205 203 192 192 200 214 228 231 229 230 224 221 224 224 226 224 223 223 227 226 220 220 220 227 216 221 224 199 222 285 266 239 230 227 225 226 227 227 227
353 227 216 205 211 205 200 205 212 228 238 244 235 234 233 227 226 227 227 226 228 228 229 227 223 219 221 228 222 212 228 236 231 242 269 264 251 235 227 223 224 225 226
13 16 356 220 233 217 212 216 221 232 240 246 246 243 243 239 234 231 229 229 231 232 231 229 227 224 225 226 227 220 210 214 217 223 243 250 246 238 228 224 224 225 226
Height
1550 1552 1555 1557 1559 1561 1562 1562 1563 1563 1564 1564 1564 1564 1564 1563 1563 1563 1562 1562 1561 1561 1560 1559 1558 1557 1555 1554 1553 1552 1552 1551 1551 1551 1550 1550 1551 1550 1549 1548 1548 1547 1547
1548 1550 1553 1555 1557 1559 1560 1561 1562 1562 1563 1563 1563 1563 1563 1563 1563 1562 1562 1562 1561 1561 1560 1559 1558 1557 1556 1554 1554 1553 1552 1552 1551 1551 1551 1550 1551 1551 1550 1549 1548 1548 1548
1546 1548 1550 1553 1555 1557 1559 1560 1560 1561 1562 1562 1562 1562 1562 1562 1562 1562 1562 1561 1561 1560 1560 1559 1558 1557 1556 1555 1554 1553 1553 1552 1552 1552 1551 1551 1551 1552 1551 1550 1549 1549 1548
1545 1546 1548 1551 1553 1555 1557 1558 1559 1560 1560 1561 1561 1562 1562 1562 1562 1561 1561 1561 1560 1560 1559 1559 1558 1557 1556 1555 1555 1554 1553 1553 1553 1552 1552 1551 1551 1552 1551 1551 1550 1549 1549
1543 1545 1547 1549 1551 1553 1555 1556 1557 1558 1559 1560 1560 1561 1561 1561 1561 1561 1561 1560 1560 1560 1559 1559 1558 1557 1557 1556 1555 1554 1554 1554 1553 1553 1553 1552 1552 1553 1552 1551 1550 1550 1549
1541 1543 1545 1547 1549 1551 1553 1554 1556 1557 1558 1558 1559 1559 1560 1560 1560 1560 1560 1560 1559 1559 1559 1558 1558 1557 1557 1556 1555 1555 1554 1554 1554 1554 1553 1552 1552 1553 1552 1551 1551 1550 1550
1539 1541 1543 1545 1547 1549 1551 1552 1554 1555 1556 1557 1557 1558 1558 1559 1559 1559 1559 1559 1559 1559 1558 1558 1558 1557 1557 1556 1556 1555 1554 1554 1554 1554 1553 1553 1553 1553 1552 1551 1551 1550 1549
1538 1539 1541 1543 1545 1547 1549 1550 1552 1553 1554 1555 1556 1556 1557 1557 1557 1558 1558 1558 1558 1558 1558 1558 1557 1557 1556 1556 1556 1555 1554 1554 1554 1554 1553 1553 1553 1552 1552 1551 1550 1549 1549
1536 1537 1539 1541 1543 1545 1546 1548 1549 1551 1552 1553 1554 1555 1555 1556 1556 1556 1556 1557 1557 1557 1557 1557 1557 1556 1556 1555 1555 1555 1554 1554 1554 1553 1553 1552 1552 1552 1551 1550 1550 1549 1548
1533 1535 1536 1538 1540 1541 1543 1545 1547 1548 1550 1551 1552 1553 1553 1554 1555 1555 1555 1555 1556 1556 1556 1556 1556 1555 1555 1555 1554 1554 1553 1553 1553 1553 1552 1551 1551 1551 1550 1549 1549 1548 1547
1529 1531 1533 1535 1536 1538 1540 1542 1544 1546 1547 1548 1549 1551 1551 1552 1553 1553 1554 1554 1554 1554 1554 1554 1554 1554 1554 1553 1553 1553 1552 1552 1552 1551 1551 1550 1550 1549 1549 1548 1547 1547 1546
1524 1526 1528 1530 1533 1535 1537 1539 1541 1542 1544 1545 1547 1548 1549 1550 1551 1551 1552 1552 1552 1552 1552 1552 1552 1552 1552 1552 1551 1551 1551 1550 1550 1550 1549 1549 1548 1548 1547 1546 1545 1545 1544
1520 1522 1524 1526 1529 1531 1533 1535 1537 1538 1540 1542 1543 1545 1546 1547 1548 1549 1549 1550 1550 1550 1550 1550 1550 1550 1550 1550 1549 1549 1549 1548 1548 1548 1547 1547 1546 1546 1545 1544 1543 1543 1542
1516 1517 1520 1522 1524 1527 1529 1531 1533 1534 1536 1538 1540 1541 1543 1544 1545 1546 1546 1547 1547 1547 1548 1548 1548 1547 1547 1547 1547 1546 1546 1546 1545 1545 1545 1544 1543 1543 1542 1542 1541 1540 1540
1511 1513 1515 1518 1520 1522 1525 1527 1528 1530 1532 1534 1536 1538 1539 1540 1542 1543 1543 1544 1544 1544 1545 1545 1545 1544 1544 1544 1543 1543 1543 1542 1542 1542 1541 1541 1540 1540 1539 1538 1538 1537 1537
1506 1508 1510 1512 1515 1518 1520 1521 1523 1526 1528 1530 1532 1533 1535 1536 1538 1539 1540 1540 1541 1541 1541 1541 1541 1541 1540 1540 1539 1539 1539 1538 1538 1537 1537 1537 1536 1535 1535 1534 1534 1534 1533
1501 1503 1505 1507 1510 1513 1515 1517 1519 1521 1523 1525 1527 1529 1531 1532 1533 1534 1535 1535 1536 1537 1537 1537 1537 1536 1536 1535 1535 1535 1534 1534 1533 1533 1532 1532 1532 1531 1530 1530 1530 1529 1529
1497 1499 1501 1504 1505 1508 1510 1512 1514 1516 1518 1520 1522 1524 1525 1527 1528 1529 1529 1530 1532 1532 1532 1532 1532 1531 1530 1530 1529 1529 1529 1528 1528 1527 1527 1526 1526 1526 1525 1525 1524 1524 1524
1492 1495 1497 1500 1501 1503 1506 1508 1510 1512 1513 1514 1516 1517 1519 1521 1522 1523 1523 1524 1526 1526 1526 1526 1525 1525 1524 1524 1524 1523 1522 1522 1521 1521 1520 1520 1520 1520 1519 1519 1519 1518 1518
1488 1491 1494 1496 1498 1501 1503 1505 1507 1507 1508 1509 1509 1511 1512 1514 1515 1516 1516 1517 1519 1519 1518 1518 1518 1518 1518 1518 1518 1516 1515 1514 1513 1512 1512 1513 1512 1512 1512 1512 1512 1512 1512
1486 1488 1490 1493 1495 1497 1499 1500 1501 1501 1502 1503 1503 1505 1506 1507 1508 1509 1509 1510 1511 1510 1511 1511 1512 1511 1510 1512 1511 1507 1505 1505 1503 1503 1504 1504 1504 1504 1505 1505 1505 1505 1505
1485 1487 1488 1490 1492 1494 1495 1496 1497 1498 1498 1498 1499 1499 1499 1500 1500 1501 1501 1501 1502 1502 1502 1502 1503 1502 1502 1504 1503 1501 1497 1493 1490 1492 1493 1494 1495 1496 1496 1497 1497 1498 1498
1486 1486 1487 1489 1490 1491 1492 1494 1494 1494 1493 1492 1492 1492 1492 1493 1493 1493 1492 1492 1492 1492 1492 1492 1493 1493 1493 1494 1494 1494 1492 1484 1483 1481 1481 1482 1484 1485 1487 1488 1488 1489 1490
1487 1487 1487 1487 1488 1489 1490 1489 1489 1488 1486 1485 1486 1485 1485 1485 1485 1484 1483 1483 1482 1482 1481 1481 1482 1482 1483 1482 1482 1481 1481 1481 1480 1474 1472 1474 1475 1475 1477 1479 1479 1480 1481
1487 1487 1486 1486 1486 1487 1487 1486 1485 1484 1482 1481 1480 1478 1477 1477 1476 1475 1474 1473 1472 1471 1470 1470 1470 1470 1469 1470 1470 1469 1469 1469 1469 1469 1463 1462 1464 1464 1467 1469 1470 1471 1472
1489 1487 1486 1486 1485 1485 1484 1483 1481 1479 1478 1476 1473 1471 1470 1468 1467 1465 1464 1463 1461 1460 1459 1458 1458 1458 1457 1457 1457 1457 1457 1456 1455 1456 1455 1452 1453 1454 1458 1459 1460 1462 1463